AUA1CP EPKK-LOWW

Flight info

Callsign AUA1CP
Flight time N/A
Altitude 24000
Route BABKO DCT VADEX DCT BABNI DCT TUTPI P182 REKLU REKLU3W
Aircraft B738/M-SDE2E3FGHIRWXY/LB1

Departure

Time 2026-05-04 19:44
Airport Kraków John Paul II International Airport (EPKK)

Arrival

Time N/A
Airport Vienna International Airport (LOWW)
Time Latitude Longitude Altitude Speed Heading
2026-05-04 19:20 50.07301 19.80010 789 ft 0 kts 167°
2026-05-04 19:35 50.07319 19.80004 789 ft 4 kts 166°
2026-05-04 19:35 50.07345 19.79993 789 ft 4 kts 161°
2026-05-04 19:35 50.07368 19.79979 789 ft 4 kts 150°
2026-05-04 19:36 50.07386 19.79956 789 ft 4 kts 111°
2026-05-04 19:36 50.07386 19.79923 789 ft 4 kts 78°
2026-05-04 19:36 50.07385 19.79913 789 ft 0 kts 77°
2026-05-04 19:39 50.07390 19.79945 789 ft 8 kts 77°
2026-05-04 19:39 50.07399 19.80017 789 ft 14 kts 78°
2026-05-04 19:39 50.07400 19.80021 789 ft 14 kts 77°
2026-05-04 19:40 50.07402 19.80033 789 ft 15 kts 77°
2026-05-04 19:40 50.07420 19.80157 789 ft 16 kts 78°
2026-05-04 19:40 50.07443 19.80322 789 ft 15 kts 70°
2026-05-04 19:40 50.07519 19.80400 789 ft 15 kts 18°
2026-05-04 19:41 50.07614 19.80416 789 ft 14 kts 351°
2026-05-04 19:41 50.07681 19.80392 789 ft 14 kts 348°
2026-05-04 19:41 50.07768 19.80362 789 ft 13 kts 347°
2026-05-04 19:41 50.07841 19.80336 789 ft 0 kts 347°
2026-05-04 19:42 50.07843 19.80336 789 ft 1 kts 347°
2026-05-04 19:42 50.07870 19.80326 789 ft 10 kts 347°
2026-05-04 19:42 50.07978 19.80285 788 ft 19 kts 335°
2026-05-04 19:43 50.08000 19.80103 789 ft 19 kts 257°
2026-05-04 19:43 50.07974 19.79917 788 ft 17 kts 257°
2026-05-04 19:43 50.07951 19.79753 788 ft 15 kts 257°
2026-05-04 19:43 50.07929 19.79596 790 ft 15 kts 258°
2026-05-04 19:44 50.07862 19.79112 790 ft 82 kts 258°
2026-05-04 19:44 50.07722 19.78106 788 ft 137 kts 258°
2026-05-04 19:44 50.07517 19.76668 890 ft 174 kts 257°
2026-05-04 19:44 50.07265 19.74878 1551 ft 178 kts 257°
2026-05-04 19:45 50.07018 19.73134 2748 ft 152 kts 255°
2026-05-04 19:45 50.06783 19.71519 3469 ft 162 kts 253°
2026-05-04 19:45 50.06512 19.69706 3753 ft 192 kts 254°
2026-05-04 19:45 50.06161 19.67970 3875 ft 212 kts 239°
2026-05-04 19:46 50.05212 19.66661 4181 ft 225 kts 204°
2026-05-04 19:46 50.03689 19.65955 4774 ft 230 kts 198°
2026-05-04 19:46 50.02139 19.65293 5288 ft 237 kts 198°
2026-05-04 19:46 50.00529 19.64601 5848 ft 243 kts 198°
2026-05-04 19:47 49.99226 19.64034 6252 ft 249 kts 198°
2026-05-04 19:47 49.97487 19.63267 6621 ft 266 kts 198°
2026-05-04 19:47 49.95680 19.62463 7228 ft 274 kts 198°
2026-05-04 19:47 49.93850 19.61645 8155 ft 273 kts 198°
2026-05-04 19:48 49.92025 19.60826 9100 ft 273 kts 198°
2026-05-04 19:48 49.90230 19.60017 9948 ft 275 kts 198°
2026-05-04 19:48 49.88459 19.59215 10488 ft 287 kts 198°
2026-05-04 19:48 49.86541 19.58344 10699 ft 311 kts 198°
2026-05-04 19:49 49.85201 19.57735 10814 ft 326 kts 198°
2026-05-04 19:49 49.83858 19.57125 10941 ft 339 kts 198°
2026-05-04 19:49 49.81663 19.56129 11098 ft 359 kts 198°
2026-05-04 19:49 49.79493 19.55148 11462 ft 369 kts 198°
2026-05-04 19:50 49.77014 19.54028 12123 ft 373 kts 198°
2026-05-04 19:50 49.74522 19.52904 12848 ft 375 kts 198°
2026-05-04 19:50 49.71975 19.51754 13567 ft 378 kts 198°
2026-05-04 19:50 49.69517 19.50645 14179 ft 381 kts 198°
2026-05-04 19:51 49.66958 19.49492 14729 ft 386 kts 198°
2026-05-04 19:51 49.64385 19.48313 15287 ft 390 kts 200°
2026-05-04 19:51 49.61914 19.46571 15867 ft 391 kts 212°
2026-05-04 19:51 49.59726 19.44101 16467 ft 394 kts 221°
2026-05-04 19:52 49.57822 19.41054 17038 ft 397 kts 231°
2026-05-04 19:52 49.56122 19.37777 17572 ft 401 kts 232°
2026-05-04 19:52 49.54373 19.34359 18118 ft 404 kts 232°
2026-05-04 19:52 49.52622 19.30938 18623 ft 408 kts 232°
2026-05-04 19:53 49.50858 19.27512 19102 ft 411 kts 232°
2026-05-04 19:53 49.49094 19.24105 19582 ft 414 kts 232°
2026-05-04 19:53 49.47286 19.20628 20092 ft 417 kts 232°
2026-05-04 19:53 49.45471 19.17154 20606 ft 419 kts 232°
2026-05-04 19:54 49.43611 19.13603 21036 ft 422 kts 232°
2026-05-04 19:54 49.41803 19.10161 21350 ft 428 kts 232°
2026-05-04 19:54 49.39934 19.06607 21803 ft 430 kts 232°
2026-05-04 19:54 49.38033 19.02996 22119 ft 436 kts 231°
2026-05-04 19:55 49.36127 18.99380 22424 ft 441 kts 231°
2026-05-04 19:55 49.34191 18.95714 22858 ft 443 kts 231°
2026-05-04 19:55 49.32241 18.92026 23278 ft 446 kts 231°
2026-05-04 19:55 49.30301 18.88361 23645 ft 449 kts 232°
2026-05-04 19:56 49.28324 18.84632 23954 ft 452 kts 232°
2026-05-04 19:56 49.26335 18.80885 24024 ft 457 kts 232°
2026-05-04 19:56 49.24312 18.77078 24040 ft 463 kts 232°
2026-05-04 19:56 49.22394 18.73475 24032 ft 467 kts 231°
2026-05-04 19:57 49.20332 18.69608 24030 ft 466 kts 231°
2026-05-04 19:57 49.18288 18.65780 24025 ft 465 kts 231°
2026-05-04 19:57 49.16234 18.61939 24029 ft 464 kts 231°
2026-05-04 19:57 49.14285 18.58299 24036 ft 464 kts 231°
2026-05-04 19:58 49.12251 18.54505 24026 ft 464 kts 231°
2026-05-04 19:58 49.10203 18.50690 24034 ft 464 kts 231°
2026-05-04 19:58 49.08169 18.46907 24024 ft 464 kts 231°
2026-05-04 19:58 49.06121 18.43103 24023 ft 464 kts 231°
2026-05-04 19:59 49.04077 18.39312 24021 ft 464 kts 231°
2026-05-04 19:59 49.02036 18.35529 24021 ft 464 kts 231°
2026-05-04 19:59 48.99981 18.31726 24022 ft 465 kts 231°
2026-05-04 19:59 48.97925 18.27916 24020 ft 465 kts 232°
2026-05-04 20:00 48.96093 18.23874 24008 ft 464 kts 240°
2026-05-04 20:00 48.94706 18.19459 24018 ft 463 kts 248°
2026-05-04 20:00 48.93511 18.15074 24013 ft 463 kts 248°
2026-05-04 20:00 48.92270 18.10542 24012 ft 463 kts 248°
2026-05-04 20:01 48.91021 18.06040 24008 ft 463 kts 248°
2026-05-04 20:01 48.89758 18.01534 24002 ft 463 kts 247°
2026-05-04 20:01 48.88487 17.97023 23997 ft 463 kts 247°
2026-05-04 20:01 48.87220 17.92537 23998 ft 463 kts 247°
2026-05-04 20:02 48.86380 17.89566 23923 ft 460 kts 247°
2026-05-04 20:02 48.85140 17.85187 23306 ft 451 kts 247°
2026-05-04 20:02 48.83518 17.79462 22420 ft 442 kts 247°
2026-05-04 20:02 48.82702 17.76586 21977 ft 437 kts 247°
2026-05-04 20:03 48.81133 17.71065 21095 ft 430 kts 246°
2026-05-04 20:03 48.80333 17.68253 20649 ft 427 kts 246°
2026-05-04 20:03 48.79162 17.64142 19995 ft 422 kts 246°
2026-05-04 20:03 48.78005 17.60092 19359 ft 417 kts 246°
2026-05-04 20:04 48.76857 17.56078 18729 ft 413 kts 245°
2026-05-04 20:04 48.75718 17.52100 18280 ft 408 kts 245°
2026-05-04 20:04 48.74600 17.48203 18128 ft 400 kts 245°
2026-05-04 20:04 48.73517 17.44434 17999 ft 385 kts 245°
2026-05-04 20:05 48.72473 17.40806 17838 ft 369 kts 245°
2026-05-04 20:05 48.71450 17.37255 16788 ft 368 kts 245°
2026-05-04 20:05 48.70412 17.33667 15573 ft 373 kts 245°
2026-05-04 20:05 48.69354 17.30011 14389 ft 376 kts 245°
2026-05-04 20:06 48.68316 17.26427 13785 ft 365 kts 245°
2026-05-04 20:06 48.67332 17.23032 13127 ft 358 kts 245°
2026-05-04 20:06 48.66343 17.19624 12522 ft 353 kts 245°
2026-05-04 20:06 48.65341 17.16181 11956 ft 363 kts 245°
2026-05-04 20:07 48.64298 17.12608 11366 ft 378 kts 245°
2026-05-04 20:07 48.63262 17.09053 11166 ft 367 kts 245°
2026-05-04 20:07 48.62249 17.05576 10958 ft 354 kts 245°
2026-05-04 20:07 48.61278 17.02248 10799 ft 341 kts 245°
2026-05-04 20:08 48.60336 16.99031 10663 ft 328 kts 244°
2026-05-04 20:08 48.59427 16.95933 10523 ft 317 kts 244°
2026-05-04 20:08 48.58699 16.92875 10368 ft 310 kts 259°
2026-05-04 20:08 48.58516 16.89690 10240 ft 301 kts 264°
2026-05-04 20:09 48.58386 16.86655 10090 ft 293 kts 264°
2026-05-04 20:09 48.58252 16.83825 9975 ft 286 kts 263°
2026-05-04 20:09 48.58104 16.80906 9685 ft 283 kts 263°
2026-05-04 20:09 48.57977 16.78523 9454 ft 282 kts 263°
2026-05-04 20:10 48.57858 16.76328 9235 ft 280 kts 263°
2026-05-04 20:10 48.57700 16.73440 9005 ft 276 kts 263°
2026-05-04 20:10 48.57496 16.70757 8715 ft 273 kts 253°
2026-05-04 20:10 48.56641 16.68353 8458 ft 265 kts 227°
2026-05-04 20:11 48.55347 16.66566 8204 ft 262 kts 216°
2026-05-04 20:11 48.53869 16.64962 7914 ft 261 kts 213°
2026-05-04 20:11 48.52399 16.63431 7643 ft 260 kts 214°
2026-05-04 20:11 48.51113 16.62091 7402 ft 259 kts 214°
2026-05-04 20:12 48.50006 16.60927 7312 ft 253 kts 213°
2026-05-04 20:12 48.49373 16.60259 7257 ft 250 kts 213°
2026-05-04 20:12 48.47986 16.58787 7133 ft 243 kts 214°
2026-05-04 20:12 48.46663 16.57379 7031 ft 236 kts 213°
2026-05-04 20:13 48.45348 16.55974 6940 ft 228 kts 213°
2026-05-04 20:13 48.44119 16.54660 6809 ft 228 kts 214°
2026-05-04 20:13 48.42813 16.53263 6579 ft 232 kts 213°
2026-05-04 20:13 48.41495 16.51851 6345 ft 233 kts 214°
2026-05-04 20:14 48.40178 16.50443 6091 ft 232 kts 214°
2026-05-04 20:14 48.38865 16.49039 5827 ft 230 kts 214°
2026-05-04 20:14 48.37572 16.47688 5570 ft 223 kts 207°
2026-05-04 20:14 48.36135 16.47255 5334 ft 210 kts 167°
2026-05-04 20:15 48.34820 16.47989 5153 ft 197 kts 161°
2026-05-04 20:15 48.33561 16.48605 4980 ft 185 kts 164°
2026-05-04 20:15 48.32358 16.49159 4728 ft 176 kts 166°
2026-05-04 20:15 48.31208 16.49666 4471 ft 168 kts 167°
2026-05-04 20:16 48.30120 16.50132 4251 ft 161 kts 167°
2026-05-04 20:16 48.29044 16.50588 4049 ft 160 kts 167°
2026-05-04 20:16 48.27999 16.51032 3832 ft 155 kts 168°
2026-05-04 20:16 48.26995 16.51459 3621 ft 145 kts 169°
2026-05-04 20:17 48.26048 16.51859 3441 ft 141 kts 169°
2026-05-04 20:17 48.25056 16.52276 3276 ft 153 kts 169°
2026-05-04 20:17 48.24023 16.52712 3064 ft 155 kts 169°
2026-05-04 20:17 48.22999 16.53148 2852 ft 150 kts 169°
2026-05-04 20:18 48.22039 16.53557 2695 ft 135 kts 169°
2026-05-04 20:18 48.21172 16.53924 2497 ft 125 kts 169°
2026-05-04 20:18 48.20341 16.54274 2338 ft 125 kts 169°
2026-05-04 20:18 48.19497 16.54630 2176 ft 127 kts 168°
2026-05-04 20:19 48.18652 16.54988 2010 ft 126 kts 168°
2026-05-04 20:19 48.17816 16.55342 1843 ft 124 kts 168°
2026-05-04 20:19 48.16999 16.55688 1685 ft 124 kts 167°
2026-05-04 20:19 48.16169 16.56039 1526 ft 125 kts 166°
2026-05-04 20:20 48.15295 16.56407 1368 ft 135 kts 165°
2026-05-04 20:20 48.14354 16.56805 1156 ft 142 kts 163°
2026-05-04 20:20 48.13417 16.57198 924 ft 139 kts 162°
2026-05-04 20:20 48.12533 16.57600 746 ft 133 kts 162°
2026-05-04 20:21 48.11654 16.57914 619 ft 132 kts 165°
2026-05-04 20:21 48.11114 16.58125 723 ft 145 kts 162°